EW1683 Weather Reports


time (UTC)temp
C
wind
direction
speed
KPH
gust
KPH
rain 1hr
cm
rain 24hr
cm
rain mn
cm
humidity
%
barometer
mb
20260510193002 13 148 3.2 11.3 0.00 0.10 0.00 72 1013.1
20260510191603 13 104 4.8 9.7 0.00 0.10 0.00 74 1013.3
20260510190104 13 98 3.2 6.4 0.00 0.10 0.00 77 1013.6
20260510184559 13 110 4.8 14.5 0.00 0.23 0.00 78 1013.5
20260510183058 12 161 3.2 16.1 0.00 0.23 0.00 83 1013.6
20260510181601 11 153 1.6 11.3 0.00 0.23 0.00 87 1013.5
20260510180058 11 162 3.2 11.3 0.00 0.23 0.00 87 1013.3
20260510174557 12 128 3.2 9.7 0.00 0.38 0.00 86 1013.3
20260510173112 11 154 0.0 6.4 0.00 0.38 0.00 85 1013.3
20260510171556 12 126 1.6 9.7 0.00 0.38 0.00 84 1013.4
20260510170056 11 139 0.0 8.0 0.00 0.38 0.00 85 1013.3
20260510164610 10 85 0.0 6.4 0.00 0.48 0.00 88 1013.5
20260510163102 10 128 1.6 6.4 0.00 0.48 0.00 89 1013.6
20260510161555 10 82 0.0 11.3 0.00 0.48 0.00 88 1013.6
20260510160056 11 159 6.4 14.5 0.00 0.48 0.00 85 1013.5
20260510154550 11 88 11.3 17.7 0.00 0.56 0.00 83 1013.2
20260510153054 12 117 6.4 14.5 0.00 0.56 0.00 81 1013.2
20260510151551 13 153 6.4 17.7 0.00 0.56 0.00 78 1013.1
20260510150046 13 148 3.2 19.3 0.00 0.56 0.00 78 1012.6
20260510144549 13 121 3.2 12.9 0.00 0.64 0.00 77 1012.5
20260510143042 13 224 0.0 4.8 0.00 0.64 0.00 84 1012.4
20260510141540 13 256 0.0 3.2 0.00 0.64 0.00 87 1012.3
20260510140037 13 243 0.0 4.8 0.00 0.64 0.00 85 1012.3
20260510134541 12 112 1.6 8.0 0.00 0.66 0.00 86 1012.2
20260510133030 11 139 0.0 6.4 0.00 0.66 0.00 89 1012.3
20260510131526 10 120 0.0 3.2 0.00 0.66 0.00 94 1012.5
20260510130022 10 101 0.0 3.2 0.00 0.66 0.00 95 1012.6
20260510124518 9 99 0.0 3.2 0.00 0.66 0.00 96 1012.5
20260510123014 8 109 0.0 3.2 0.00 0.66 0.00 96 1012.3
20260510121511 8 78 4.8 8.0 0.00 0.66 0.00 97 1012.5
20260510120010 8 95 3.2 9.7 0.00 0.66 0.00 97 1012.3
20260510114509 7 79 4.8 9.7 0.00 0.66 0.00 97 1012.3
20260510113009 7 65 4.8 11.3 0.00 0.66 0.00 97 1012.2
20260510111507 7 69 3.2 6.4 0.00 0.66 0.00 97 1012.0
20260510110005 7 106 0.0 4.8 0.00 0.66 0.00 97 1012.0
20260510104502 7 239 0.0 1.6 0.00 0.66 0.00 97 1011.8
20260510103004 7 110 1.6 8.0 0.00 0.66 0.00 97 1011.3
20260510101503 7 115 1.6 6.4 0.00 0.66 0.00 98 1011.2
20260510100101 7 108 3.2 9.7 0.00 0.66 0.00 98 1010.9
20260510094602 7 66 4.8 8.0 0.00 0.66 0.00 98 1010.3
20260510093059 7 73 3.2 8.0 0.00 0.66 0.00 98 1010.5
20260510091557 7 90 0.0 3.2 0.00 0.66 0.00 98 1010.5
20260510090106 7 91 0.0 3.2 0.00 0.66 0.00 98 1010.6
20260510084600 7 109 0.0 3.2 0.00 0.66 0.00 98 1010.6
20260510083101 8 121 1.6 8.0 0.00 0.66 0.00 98 1010.5
20260510081554 8 97 3.2 14.5 0.00 0.66 0.00 98 1011.2
20260510080056 8 103 6.4 9.7 0.00 0.66 0.00 98 1011.1
20260510074611 8 105 1.6 8.0 0.00 0.66 0.00 98 1011.3
20260510073050 7 141 4.8 12.9 0.00 0.66 0.00 98 1011.3
20260510071556 7 97 3.2 9.7 0.00 0.66 0.00 98 1011.1
20260510070046 7 100 4.8 8.0 0.00 0.66 0.00 98 1010.9
20260510064605 7 134 4.8 9.7 0.00 0.66 0.00 98 1010.9
20260510063047 7 68 1.6 6.4 0.00 0.66 0.00 98 1010.9
20260510061543 7 78 4.8 11.3 0.00 0.66 0.00 98 1011.2
20260510060052 7 73 4.8 12.9 0.00 0.66 0.00 98 1011.0
20260510054540 7 89 6.4 16.1 0.00 0.66 0.00 98 1011.0
20260510053041 7 102 12.9 19.3 0.00 0.66 0.00 98 1011.1
20260510051541 7 148 9.7 17.7 0.00 0.66 0.00 98 1011.2
20260510050038 7 101 8.0 14.5 0.00 0.66 0.00 98 1011.2
20260510044532 7 104 8.0 14.5 0.00 0.66 0.00 98 1011.2
20260510043028 7 117 4.8 8.0 0.00 0.66 0.00 98 1011.4
20260510041529 7 68 3.2 8.0 0.00 0.66 0.00 98 1011.6
20260510040024 7 117 4.8 11.3 0.00 0.66 0.66 98 1011.4
20260510034523 7 112 4.8 11.3 0.00 0.66 0.66 98 1011.5
20260510033025 7 93 6.4 9.7 0.00 0.66 0.66 98 1011.5
20260510031521 7 104 4.8 11.3 0.00 0.66 0.66 98 1011.4
20260510030021 7 115 3.2 9.7 0.00 0.66 0.66 98 1011.8
20260510024522 7 97 3.2 9.7 0.00 0.66 0.66 98 1011.7
20260510023020 6 95 3.2 11.3 0.00 0.66 0.66 98 1011.5
20260510021517 6 68 4.8 11.3 0.00 0.66 0.66 98 1011.6
20260510020018 6 122 4.8 11.3 0.00 0.66 0.66 98 1011.9
20260510014522 6 107 4.8 11.3 0.00 0.66 0.66 98 1012.0
20260510013016 6 68 3.2 11.3 0.00 0.66 0.66 98 1011.8
20260510011523 6 92 4.8 12.9 0.00 0.66 0.66 98 1011.9
20260510010114 6 112 6.4 9.7 0.00 0.66 0.66 97 1012.0
20260510004513 6 112 4.8 11.3 0.00 0.66 0.66 97 1011.9
20260510003013 6 102 3.2 11.3 0.00 0.66 0.66 97 1011.6
20260510001512 6 127 1.6 6.4 0.00 0.66 0.66 97 1011.6
20260510000011 6 80 3.2 9.7 0.00 0.66 0.66 97 1011.3
20260509234512 6 49 4.8 11.3 0.00 0.66 0.66 97 1011.2
20260509233010 6 86 3.2 9.7 0.00 0.66 0.66 97 1011.1
20260509231510 6 95 3.2 6.4 0.00 0.66 0.66 97 1011.0
20260509230009 6 64 1.6 6.4 0.00 0.66 0.66 97 1011.0
20260509224511 7 98 3.2 8.0 0.00 0.66 0.66 97 1011.0
20260509223008 6 136 3.2 8.0 0.00 0.66 0.66 97 1011.0
20260509221516 6 99 3.2 11.3 0.00 0.66 0.66 97 1011.0
20260509220110 6 78 3.2 9.7 0.03 0.66 0.66 97 1011.1
20260509214500 6 99 3.2 9.7 0.03 0.66 0.66 97 1011.1
20260509213102 6 80 1.6 8.0 0.03 0.66 0.66 97 1011.2
20260509211557 6 111 3.2 12.9 0.03 0.66 0.66 97 1011.3
20260509210100 5 57 4.8 12.9 0.00 0.64 0.64 97 1011.4
20260509204600 6 98 4.8 9.7 0.00 0.66 0.64 97 1011.4
20260509203055 6 134 3.2 11.3 0.03 0.66 0.64 97 1011.6
20260509201552 6 66 3.2 11.3 0.05 0.66 0.64 97 1011.8
20260509200058 5 121 4.8 11.3 0.08 0.66 0.64 97 1011.8
20260509194550 5 82 3.2 8.0 0.10 0.66 0.64 97 1011.7